Location: Newark
(42.9858°N, 0.6717°E)
Time: 00:11:11
(UTC+00:00)

S-56A Canister/Altair - Pass Details

Date: 26 November 2019
Orbit: 632 x 2500 km, 38.9° (Epoch: 14 December)

Event Time Altitude Azimuth Distance (km) Brightness Sun altitude
Rises 19:47:07 0° 280° (W) 4,757 12.6 -36.3°
Reaches altitude 10° 19:51:05 10° 272° (W) 3,438 11.6 -37.0°
Enters shadow 19:57:35 31° 222° (SW) 1,752 9.5 -38.2°
Maximum altitude 19:58:05 32° 214° (SW) 1,710 - -38.3°
Drops below altitude 10° 20:03:07 10° 152° (SSE) 2,443 - -39.2°
Sets 20:05:29 0° 142° (SE) 3,212 - -39.7°
